• en France
  • Liste des pays
  • À 7 jours
  • Température de l'eau
  • Carte satellitaire
  • Carte météo
  • Widgets météo
  • user-avatar
    Se connecter

    Météo par heure à Brazzaville

    Ce jour, 25 Mai, Vendredi

    Heure Température Précipitation Vent Pression Humidité
    00:00 +25°C° 0 mm 1 m/s 734 mmHg 91%
    01:00 +25°C° 0 mm 1 m/s 733 mmHg 92%
    02:00 +25°C° 0 mm 1 m/s 733 mmHg 92%
    03:00 +25°C° 0 mm 1 m/s 733 mmHg 93%
    04:00 +24°C° 0 mm 1 m/s 733 mmHg 94%
    05:00 +25°C° 0 mm 1 m/s 733 mmHg 94%
    06:00 +25°C° 0 mm 1 m/s 733 mmHg 93%
    07:00 +25°C° 0 mm 1 m/s 734 mmHg 92%
    08:00 +27°C° 0 mm 2 m/s 734 mmHg 86%
    09:00 +28°C° 0 mm 2 m/s 734 mmHg 79%
    10:00 +30°C° 0 mm 2 m/s 735 mmHg 73%
    11:00 +31°C° 0,7 mm 2 m/s 734 mmHg 68%
    12:00 +32°C° 0,7 mm 2 m/s 734 mmHg 64%
    13:00 +34°C° 0,7 mm 2 m/s 733 mmHg 59%
    14:00 +34°C° 1 mm 2 m/s 733 mmHg 60%
    15:00 +34°C° 1 mm 2 m/s 732 mmHg 61%
    16:00 +32°C° 1 mm 2 m/s 732 mmHg 63%
    17:00 +31°C° 0,6 mm 1 m/s 732 mmHg 70%
    18:00 +29°C° 0,6 mm 1 m/s 732 mmHg 77%
    19:00 +27°C° 0,6 mm 1 m/s 733 mmHg 85%
    20:00 +27°C° 0,5 mm 1 m/s 733 mmHg 87%
    21:00 +26°C° 0,5 mm 1 m/s 733 mmHg 88%
    22:00 +26°C° 0,5 mm 1 m/s 734 mmHg 90%
    23:00 +26°C° 0,1 mm 1 m/s 734 mmHg 91%

    Demain, 26 Mai, Samedi

    Heure Température Précipitation Vent Pression Humidité
    00:00 +25°C° 0,1 mm 1 m/s 733 mmHg 92%
    01:00 +25°C° 0,1 mm 1 m/s 733 mmHg 93%
    02:00 +25°C° 0 mm 1 m/s 733 mmHg 94%
    03:00 +24°C° 0 mm 1 m/s 733 mmHg 95%
    04:00 +24°C° 0 mm 1 m/s 733 mmHg 96%
    05:00 +24°C° 0 mm 1 m/s 733 mmHg 96%
    06:00 +25°C° 0 mm 1 m/s 734 mmHg 95%
    07:00 +25°C° 0 mm 1 m/s 734 mmHg 94%
    08:00 +26°C° 0 mm 1 m/s 734 mmHg 87%
    09:00 +28°C° 0 mm 1 m/s 735 mmHg 81%
    10:00 +29°C° 0 mm 1 m/s 735 mmHg 75%
    11:00 +31°C° 0 mm 1 m/s 734 mmHg 69%
    12:00 +32°C° 0 mm 1 m/s 734 mmHg 62%
    13:00 +34°C° 0 mm 1 m/s 733 mmHg 56%
    14:00 +34°C° 0 mm 1 m/s 733 mmHg 56%
    15:00 +34°C° 0 mm 1 m/s 732 mmHg 55%
    16:00 +34°C° 0 mm 1 m/s 732 mmHg 54%
    17:00 +32°C° 0 mm 1 m/s 732 mmHg 59%
    18:00 +30°C° 0 mm 1 m/s 732 mmHg 64%
    19:00 +29°C° 0 mm 1 m/s 733 mmHg 68%
    20:00 +28°C° 0 mm 1 m/s 733 mmHg 71%
    21:00 +27°C° 0 mm 1 m/s 734 mmHg 74%
    22:00 +27°C° 0 mm 1 m/s 734 mmHg 77%
    23:00 +26°C° 0 mm 1 m/s 734 mmHg 79%

    Après-demain, 27 Mai, Dimanche

    Heure Température Précipitation Vent Pression Humidité
    00:00 +26°C° 0 mm 1 m/s 734 mmHg 82%
    01:00 +26°C° 0 mm 1 m/s 734 mmHg 84%
    02:00 +25°C° 0 mm 1 m/s 734 mmHg 86%
    03:00 +25°C° 0 mm 1 m/s 733 mmHg 88%
    04:00 +25°C° 0 mm 1 m/s 733 mmHg 90%
    05:00 +25°C° 0 mm 1 m/s 734 mmHg 89%
    06:00 +25°C° 0 mm 1 m/s 734 mmHg 87%
    07:00 +26°C° 0 mm 1 m/s 735 mmHg 86%
    08:00 +28°C° 0 mm 1 m/s 735 mmHg 79%
    09:00 +29°C° 0 mm 1 m/s 735 mmHg 71%
    10:00 +31°C° 0 mm 2 m/s 736 mmHg 63%
    11:00 +34°C° 0 mm 2 m/s 735 mmHg 59%
    12:00 +35°C° 0 mm 2 m/s 734 mmHg 54%
    13:00 +36°C° 0 mm 2 m/s 734 mmHg 50%
    14:00 +34°C° 0 mm 1 m/s 733 mmHg 51%
    15:00 +34°C° 0 mm 1 m/s 733 mmHg 52%
    16:00 +34°C° 0 mm 1 m/s 732 mmHg 53%
    17:00 +32°C° 0 mm 1 m/s 733 mmHg 58%
    18:00 +30°C° 0 mm 1 m/s 733 mmHg 63%
    19:00 +29°C° 0 mm 1 m/s 734 mmHg 68%
    20:00 +28°C° 0 mm 1 m/s 734 mmHg 71%
    21:00 +27°C° 0 mm 1 m/s 735 mmHg 75%
    22:00 +27°C° 0 mm 1 m/s 735 mmHg 78%
    23:00 +26°C° 0 mm 1 m/s 735 mmHg 80%

    28 Mai, Lundi

    Heure Température Précipitation Vent Pression Humidité
    00:00 +26°C° 0 mm 1 m/s 735 mmHg 82%
    01:00 +24°C° 0 mm 0 m/s 734 mmHg 83%
    02:00 +25°C° 0,1 mm 1 m/s 734 mmHg 84%
    03:00 +25°C° 0,1 mm 1 m/s 734 mmHg 85%
    04:00 +25°C° 0,1 mm 1 m/s 734 mmHg 86%
    05:00 +25°C° 0 mm 1 m/s 735 mmHg 86%
    06:00 +25°C° 0 mm 1 m/s 735 mmHg 85%
    07:00 +25°C° 0 mm 1 m/s 736 mmHg 85%
    08:00 +27°C° 0 mm 1 m/s 736 mmHg 80%
    09:00 +28°C° 0 mm 1 m/s 736 mmHg 76%
    10:00 +29°C° 0 mm 2 m/s 737 mmHg 71%
    11:00 +30°C° 0,4 mm 2 m/s 736 mmHg 66%
    12:00 +31°C° 0,4 mm 2 m/s 735 mmHg 62%
    13:00 +34°C° 0,4 mm 2 m/s 735 mmHg 57%
    14:00 +34°C° 0,2 mm 2 m/s 734 mmHg 58%
    15:00 +32°C° 0,2 mm 2 m/s 734 mmHg 58%
    16:00 +32°C° 0,2 mm 2 m/s 733 mmHg 59%
    17:00 +31°C° 0,3 mm 2 m/s 734 mmHg 66%
    18:00 +29°C° 0,3 mm 1 m/s 734 mmHg 72%
    19:00 +27°C° 0,3 mm 1 m/s 735 mmHg 79%
    20:00 +27°C° 0 mm 1 m/s 735 mmHg 81%
    21:00 +26°C° 0 mm 1 m/s 735 mmHg 83%
    22:00 +26°C° 0 mm 1 m/s 736 mmHg 84%
    23:00 +26°C° 0 mm 1 m/s 735 mmHg 86%

    29 Mai, Mardi

    Heure Température Précipitation Vent Pression Humidité
    00:00 +25°C° 0 mm 1 m/s 735 mmHg 88%
    01:00 +25°C° 0 mm 1 m/s 735 mmHg 89%
    02:00 +25°C° 0 mm 1 m/s 734 mmHg 91%
    03:00 +24°C° 0 mm 1 m/s 734 mmHg 92%
    04:00 +24°C° 0 mm 1 m/s 734 mmHg 94%
    05:00 +24°C° 0 mm 1 m/s 735 mmHg 92%
    06:00 +25°C° 0 mm 1 m/s 735 mmHg 91%
    07:00 +25°C° 0 mm 1 m/s 735 mmHg 90%
    08:00 +27°C° 0 mm 2 m/s 736 mmHg 82%
    09:00 +28°C° 0 mm 2 m/s 736 mmHg 74%
    10:00 +30°C° 0 mm 2 m/s 736 mmHg 66%
    11:00 +32°C° 0,1 mm 2 m/s 735 mmHg 61%
    12:00 +34°C° 0,1 mm 2 m/s 735 mmHg 56%
    13:00 +35°C° 0,1 mm 2 m/s 734 mmHg 52%
    14:00 +35°C° 0,6 mm 2 m/s 734 mmHg 54%
    15:00 +33°C° 0,6 mm 1 m/s 733 mmHg 57%
    16:00 +33°C° 0,6 mm 1 m/s 733 mmHg 59%
    17:00 +31°C° 0,3 mm 1 m/s 733 mmHg 65%
    18:00 +29°C° 0,3 mm 1 m/s 734 mmHg 71%
    19:00 +28°C° 0,3 mm 1 m/s 734 mmHg 76%
    20:00 +27°C° 0 mm 1 m/s 734 mmHg 78%
    21:00 +27°C° 0 mm 1 m/s 734 mmHg 80%
    22:00 +27°C° 0 mm 1 m/s 735 mmHg 82%
    23:00 +26°C° 0 mm 1 m/s 734 mmHg 83%

    30 Mai, Mercredi

    Heure Température Précipitation Vent Pression Humidité
    00:00 +26°C° 0 mm 1 m/s 734 mmHg 84%
    01:00 +26°C° 0 mm 1 m/s 734 mmHg 85%
    02:00 +25°C° 0,1 mm 1 m/s 734 mmHg 86%
    03:00 +25°C° 0,1 mm 1 m/s 734 mmHg 87%
    04:00 +25°C° 0,1 mm 1 m/s 734 mmHg 88%
    05:00 +25°C° 0 mm 1 m/s 734 mmHg 87%
    06:00 +25°C° 0 mm 1 m/s 735 mmHg 87%
    07:00 +25°C° 0 mm 1 m/s 735 mmHg 86%
    08:00 +27°C° 0 mm 1 m/s 735 mmHg 79%
    09:00 +29°C° 0 mm 2 m/s 735 mmHg 72%
    10:00 +31°C° 0 mm 2 m/s 736 mmHg 64%
    11:00 +32°C° 0 mm 2 m/s 735 mmHg 60%
    12:00 +34°C° 0 mm 2 m/s 734 mmHg 56%
    13:00 +34°C° 0 mm 1 m/s 733 mmHg 52%
    14:00 +34°C° 0,3 mm 1 m/s 733 mmHg 54%
    15:00 +33°C° 0,3 mm 1 m/s 732 mmHg 56%
    16:00 +33°C° 0,3 mm 1 m/s 732 mmHg 58%
    17:00 +31°C° 0,4 mm 1 m/s 732 mmHg 64%
    18:00 +30°C° 0,4 mm 1 m/s 733 mmHg 71%
    19:00 +28°C° 0,4 mm 1 m/s 733 mmHg 77%
    20:00 +28°C° 0,1 mm 1 m/s 734 mmHg 78%
    21:00 +27°C° 0,1 mm 1 m/s 734 mmHg 80%
    22:00 +27°C° 0,1 mm 1 m/s 734 mmHg 82%
    23:00 +26°C° 0 mm 1 m/s 734 mmHg 83%
    Voir plus